Location: Fredericton
(45.9636°N, 66.6431°W)
Time: 21:30:14
(UTC-04:00)

ISS - Pass Details

Date: 27 October 2021
Orbit: 417 x 422 km, 51.6° (Epoch: 07 December)

Event Time Altitude Azimuth Distance (km) Brightness Sun altitude
Exits shadow 06:03:47 73° 38° (NE) 442 -3.7 -20.8°
Drops below altitude 10° 06:06:53 10° 61° (ENE) 1,500 0.0 -20.3°
Sets 06:08:59 0° 63° (ENE) 2,365 1.2 -19.9°
